Vertical_Velocity
-1 0 -2 -3 1 2 1 -1 -2 -2 -3 -3 1 0 2 -1 -1 -3 -3 2 -1 -0 -1 7 -4 5 1 -7 2 -4 -3 -0 -0 -0 2 2 -0 -2 1 2 3 2 -4 1 -0
-2 2 -1 -1 -1 -3 1 3 2 -1 -0 -4 -3 -3 -1 -1 -2 -4 2 3 5 6 -4 5 -2 -0 -0 -0 6 -4 -2 -2 -2 1 1 1 -3 1 0 -1 -1 3 0 1 0
1 2 2 1 1 -1 -1 1 5 3 -1 1 -2 -2 -3 -1 -3 -3 -0 -4 2 1 -3 5 9 -3 1 3 2 1 -3 -1 1 -5 4 1 0 -1 0 1 -2 -2 -1 3 2
0 1 0 0 -1 -2 -1 -3 -3 3 3 0 0 -2 -4 0 -1 1 -3 -3 14 3 -2 -1 7 4 1 1 -3 -3 2 -4 -0 -5 -2 -0 -0 1 -1 0 2 7 -3 1 1
-0 -2 -1 -1 -1 -0 -2 -3 -2 -3 2 5 4 0 -0 -0 -11 -1 5 1 -2 6 -1 -2 -1 -1 -1 -1 4 1 0 3 -4 -2 -1 6 -1 -2 0 0 1 2 -3 -1 0
2 -1 -4 -2 -2 -2 -3 3 -0 -4 -4 1 3 2 -0 -0 -2 -3 1 3 0 -0 -0 3 -1 -5 -0 -1 -1 -0 -0 0 3 3 -2 -1 -1 6 0 1 2 -1 -1 1 -1
-1 -1 0 -2 0 0 2 -3 -1 4 2 -2 0 3 1 -19 1 -1 -3 3 4 0 -0 -1 2 5 0 1 2 -1 -3 1 1 -1 -0 -4 4 -1 -0 -2 -2 -3 -4 -2 -2
-2 -0 0 -2 -1 -1 -0 1 -1 -4 2 1 2 2 -11 1 -1 -0 1 -2 2 2 3 2 0 1 -2 2 -2 -3 -3 0 -1 1 1 7 -5 -0 0 -3 0 0 -1 -2 -1
-1 -1 1 1 -0 -1 -0 2 1 -2 -2 2 -3 -1 -14 1 -0 2 2 1 0 5 6 3 5 -1 2 -0 1 -0 -1 1 1 -1 -1 -1 -2 1 1 -0 0 0 -0 -1 -0
-1 -1 -0 -0 -0 -1 -0 -1 -0 1 -2 -2 3 5 -2 -0 1 1 1 4 -3 -1 10 1 4 -0 2 2 -4 -2 0 0 -1 -2 1 1 -3 0 -1 1 1 -0 -1 -2 -2
0 -1 -2 -3 -2 -3 -2 -1 1 1 6 -10 -2 -2 1 2 -1 1 3 2 0 5 -1 -1 1 -4 -6 -3 -2 -1 0 -1 -1 -0 -3 -2 -1 -2 -1 2 -0 -1 -1 -2 -5
1 2 3 2 2 0 -1 -1 -1 5 -11 -3 -2 2 -2 4 0 1 3 2 -0 -1 1 1 -3 -6 -0 1 2 1 0 -2 0 1 0 -0 -4 -2 0 -4 -7 -2 -1 -4 3
-2 -1 -2 1 2 2 0 -0 -0 2 5 -11 0 -1 -13 5 -3 -4 1 2 -1 1 -0 -3 -6 1 1 1 4 -1 0 -1 -3 1 -0 -0 -2 -0 -1 2 1 1 1 2 -6
1 0 -1 -0 -1 -1 1 2 2 4 4 -10 -1 1 2 4 -2 4 1 -0 1 -3 -1 -2 -3 -1 2 -0 -0 5 -2 -1 0 2 -3 -2 -11 0 -0 -1 1 0 -2 -3 -4
-1 -4 -1 -3 1 0 -0 -1 -1 0 -2 2 0 4 2 -2 2 2 2 5 -1 -2 1 -12 0 1 2 -17 -0 -13 -1 -2 -1 1 1 1 5 -12 1 -0 -2 -2 -6 -3 -2
0 0 -1 -3 1 1 -2 -2 -1 -5 -9 -2 1 -0 -1 -0 -2 1 1 1 1 1 1 -3 -0 -1 -6 -1 -2 -2 -1 -1 1 0 9 -10 3 -17 -2 -6 -2 -0 -4 -1 -2
2 1 -1 1 -1 -2 1 2 -4 -1 -5 -3 0 -0 -0 -1 -1 2 -0 1 -2 1 2 1 -2 0 -1 1 0 5 2 1 5 6 -6 -1 8 -23 -2 -3 -6 -4 -4 2 4
-1 -1 4 2 4 2 -1 1 1 -3 0 -1 0 1 -2 -0 -3 -0 1 0 1 1 1 0 -4 -1 -3 -10 -12 -5 -4 -3 -1 -1 -4 -0 -2 -25 -6 -3 -4 -3 6 2 1
-4 0 -0 -1 -2 -2 0 1 -3 1 2 0 -5 -1 -1 -0 4 2 0 -1 -2 -3 -2 1 -4 0 -0 -1 1 -1 5 -17 6 -1 6 -4 -8 -9 1 -1 0 -1 2 2 2
-4 -0 -0 0 1 2 3 -3 -0 0 1 0 1 -1 1 -0 -1 0 1 -2 -1 0 1 -2 2 -0 -4 -3 -2 -5 -4 5 4 2 -0 1 -1 -9 -0 -3 -1 0 -1 4 4
-7 -3 1 0 0 1 -1 -3 -0 -1 2 2 1 0 0 0 3 -1 -4 -7 -1 -1 0 0 6 -10 -3 -0 -2 3 0 1 4 2 2 1 -2 3 1 1 0 0 -1 -0 2
-1 -4 3 -1 -4 0 -0 1 2 -1 1 0 -2 1 2 0 0 1 -0 1 2 2 0 2 2 -1 -9 -6 0 0 -1 0 6 -6 -1 5 -1 0 -0 1 2 1 1 4 1
-2 -2 1 4 -2 -1 -3 -2 1 -1 0 -1 -1 3 0 1 3 3 0 1 -7 2 2 0 -3 -1 -15 -6 -4 -1 0 1 1 0 -2 5 -6 -0 -0 -1 -0 -1 2 -1 0
0 -5 -1 0 2 2 0 -2 -2 1 0 0 -1 0 -4 -2 -1 -3 -3 -2 -1 1 2 3 0 -1 -2 -5 0 1 -0 -0 -1 1 -4 -4 -5 -12 -2 -0 -0 -0 0 1 2
-2 0 0 -3 -4 -0 1 1 -0 -2 -0 -1 -3 -0 3 1 -1 -0 -0 -2 -2 -4 -1 1 1 2 -2 -1 3 -0 1 -1 2 -4 3 -8 1 -7 -3 -1 -2 -1 2 -0 0
-1 -1 1 -1 0 0 -1 -1 1 -3 2 -2 2 -0 0 1 1 -2 6 -0 -2 -4 0 -0 -6 2 -3 -1 2 1 -1 0 -0 -2 1 2 -8 -3 -0 1 0 1 1 1 1
0 -0 0 -1 -1 -2 1 -0 0 1 -2 3 2 2 0 1 2 -1 1 -1 0 1 -0 1 1 1 -8 0 -1 -5 -7 -2 -1 -0 -2 2 -10 0 -2 -1 -0 -1 -2 -2 -2
Height
1502 1499 1496 1493 1490 1487 1485 1483 1481 1480 1480 1480 1480 1479 1479 1478 1478 1478 1476 1477 1478 1479 1480 1482 1487 1485 1487 1489 1490 1494 1500 1504 1502 1499 1500 1500 1501 1501 1501 1503 1500 1497 1502 1506 1510
1502 1499 1495 1492 1489 1487 1485 1482 1481 1480 1478 1477 1478 1478 1478 1477 1475 1474 1475 1474 1475 1477 1480 1481 1481 1488 1489 1490 1488 1492 1499 1502 1501 1500 1501 1501 1502 1505 1504 1506 1506 1498 1501 1506 1509
1502 1499 1495 1492 1489 1487 1485 1482 1481 1479 1478 1477 1476 1477 1477 1477 1476 1473 1472 1472 1473 1476 1478 1481 1484 1485 1489 1489 1489 1490 1493 1497 1499 1500 1501 1502 1501 1506 1506 1506 1506 1500 1505 1506 1510
1502 1499 1495 1491 1488 1486 1484 1482 1480 1479 1478 1477 1477 1476 1477 1478 1478 1472 1471 1472 1473 1475 1477 1480 1483 1486 1485 1487 1486 1489 1489 1492 1497 1499 1501 1502 1503 1505 1505 1503 1501 1498 1503 1507 1511
1501 1498 1494 1490 1487 1484 1482 1480 1479 1478 1478 1477 1476 1476 1476 1477 1473 1472 1471 1470 1471 1473 1475 1478 1482 1485 1485 1484 1486 1486 1489 1491 1494 1499 1503 1503 1503 1502 1499 1502 1502 1500 1504 1509 1510
1500 1497 1493 1489 1486 1483 1481 1479 1477 1476 1476 1476 1476 1475 1475 1476 1469 1471 1471 1471 1469 1472 1474 1477 1479 1482 1483 1483 1485 1483 1488 1492 1495 1494 1498 1503 1504 1501 1498 1500 1500 1501 1503 1508 1510
1500 1496 1492 1488 1484 1481 1479 1477 1476 1474 1473 1473 1475 1475 1473 1469 1468 1469 1471 1471 1470 1469 1472 1476 1478 1482 1482 1484 1485 1487 1491 1493 1495 1497 1496 1497 1506 1500 1497 1499 1500 1501 1505 1508 1510
1500 1496 1492 1488 1484 1481 1479 1477 1476 1475 1474 1473 1473 1474 1470 1466 1466 1467 1469 1470 1470 1468 1471 1474 1478 1480 1481 1483 1485 1488 1490 1494 1492 1494 1494 1497 1490 1492 1493 1496 1499 1500 1503 1506 1507
1500 1496 1492 1488 1484 1482 1480 1478 1475 1473 1473 1472 1473 1474 1468 1465 1465 1465 1467 1468 1469 1470 1471 1472 1476 1479 1481 1482 1484 1489 1495 1492 1488 1489 1491 1492 1486 1487 1489 1491 1495 1497 1500 1502 1503
1499 1496 1492 1488 1485 1482 1480 1478 1476 1473 1472 1472 1472 1475 1465 1464 1463 1464 1465 1466 1468 1470 1473 1473 1473 1475 1479 1480 1476 1483 1489 1488 1485 1485 1488 1490 1488 1488 1489 1490 1490 1494 1496 1497 1498
1499 1495 1491 1488 1485 1482 1480 1478 1478 1475 1471 1465 1464 1461 1460 1461 1462 1462 1463 1464 1466 1469 1471 1473 1474 1466 1471 1475 1473 1477 1479 1480 1478 1479 1484 1484 1483 1481 1488 1491 1491 1490 1490 1490 1492
1498 1494 1490 1487 1484 1481 1479 1478 1478 1479 1468 1458 1457 1457 1457 1459 1460 1460 1462 1463 1463 1467 1468 1473 1467 1466 1467 1468 1471 1473 1477 1476 1476 1479 1482 1482 1482 1477 1481 1479 1477 1478 1481 1482 1486
1496 1492 1489 1486 1482 1481 1479 1479 1477 1477 1472 1454 1450 1451 1453 1458 1458 1457 1459 1459 1460 1464 1465 1465 1461 1463 1467 1469 1471 1470 1470 1478 1474 1481 1484 1483 1481 1473 1472 1472 1472 1470 1472 1475 1476
1493 1490 1486 1484 1484 1481 1480 1479 1478 1477 1474 1456 1451 1450 1451 1453 1454 1453 1455 1459 1460 1461 1463 1462 1458 1460 1463 1465 1468 1471 1468 1470 1477 1478 1476 1479 1465 1467 1464 1467 1465 1462 1463 1464 1469
1491 1487 1485 1481 1481 1480 1481 1479 1479 1479 1483 1456 1454 1453 1452 1455 1455 1452 1453 1455 1457 1459 1462 1458 1457 1459 1461 1454 1463 1462 1464 1466 1473 1476 1478 1479 1475 1453 1459 1453 1447 1452 1451 1453 1457
1489 1486 1482 1480 1479 1479 1478 1478 1479 1481 1472 1454 1454 1454 1454 1454 1454 1453 1453 1454 1455 1457 1458 1456 1454 1453 1451 1453 1455 1457 1462 1466 1468 1472 1460 1457 1467 1435 1445 1444 1442 1440 1440 1441 1445
1487 1483 1479 1477 1477 1478 1478 1478 1482 1477 1454 1457 1454 1454 1456 1455 1453 1452 1453 1454 1454 1457 1453 1449 1447 1447 1447 1453 1454 1457 1461 1458 1459 1460 1446 1444 1460 1434 1432 1427 1424 1424 1425 1427 1436
1484 1481 1477 1476 1476 1476 1477 1480 1482 1459 1460 1457 1456 1454 1454 1453 1451 1450 1452 1450 1448 1450 1449 1449 1442 1438 1436 1439 1443 1448 1449 1445 1440 1442 1444 1445 1440 1428 1418 1418 1418 1418 1420 1423 1429
1483 1478 1475 1474 1476 1477 1480 1484 1473 1465 1464 1463 1459 1455 1454 1453 1453 1450 1449 1447 1442 1443 1448 1442 1439 1431 1431 1430 1436 1445 1443 1437 1438 1435 1438 1440 1435 1420 1418 1417 1417 1416 1416 1419 1424
1481 1476 1474 1475 1476 1478 1478 1475 1469 1465 1463 1461 1463 1458 1461 1456 1459 1452 1449 1446 1442 1442 1441 1440 1436 1434 1433 1432 1433 1435 1435 1439 1438 1430 1422 1428 1429 1417 1417 1418 1412 1416 1414 1417 1421
1482 1477 1477 1476 1477 1479 1480 1477 1468 1465 1464 1465 1463 1461 1461 1463 1460 1459 1451 1447 1446 1446 1445 1445 1445 1442 1434 1432 1430 1436 1434 1435 1431 1426 1415 1414 1416 1435 1430 1429 1426 1420 1421 1424 1425
1482 1481 1477 1476 1480 1480 1480 1473 1470 1466 1465 1464 1467 1471 1469 1469 1466 1457 1453 1451 1451 1450 1449 1449 1447 1454 1443 1431 1430 1431 1433 1437 1440 1428 1424 1425 1414 1430 1432 1429 1427 1423 1425 1425 1428
1482 1478 1477 1477 1480 1480 1476 1474 1470 1468 1466 1466 1468 1466 1462 1461 1468 1457 1453 1455 1458 1456 1454 1453 1449 1447 1442 1438 1436 1440 1448 1451 1448 1441 1438 1431 1420 1429 1425 1423 1427 1427 1427 1427 1431
1483 1482 1478 1478 1479 1477 1477 1473 1471 1468 1467 1467 1466 1464 1466 1465 1459 1459 1459 1455 1455 1455 1454 1456 1456 1457 1453 1449 1447 1442 1442 1443 1447 1453 1448 1436 1436 1421 1423 1419 1423 1425 1425 1428 1428
1485 1487 1487 1484 1480 1481 1480 1475 1473 1472 1470 1468 1466 1469 1468 1470 1464 1457 1453 1454 1453 1453 1453 1454 1453 1453 1446 1445 1444 1443 1439 1436 1443 1444 1447 1440 1433 1426 1420 1419 1418 1421 1423 1424 1428
1488 1489 1487 1484 1482 1480 1479 1477 1476 1476 1475 1472 1471 1470 1471 1472 1468 1467 1461 1461 1457 1454 1453 1455 1450 1448 1447 1442 1442 1440 1441 1441 1437 1436 1435 1434 1426 1422 1418 1416 1418 1417 1420 1421 1424
1492 1491 1490 1485 1482 1483 1485 1483 1480 1478 1474 1473 1472 1473 1471 1468 1468 1465 1463 1461 1458 1458 1457 1454 1452 1455 1446 1453 1453 1462 1448 1431 1425 1423 1422 1423 1424 1423 1419 1419 1418 1418 1419 1421 1424